Regional Weather Roundup
Issued by NWS

Home | Current Version | Previous Version | Text Only | Print | Product List | Glossary On
Versions: 1 2 3 4 5 6 7 8 9 10 11 12 13 14 15 16 17 18 19 20 21 22 23 24 25 26 27
000
ASUS46 KPQR 240210
RWROR

OREGON REGIONAL WEATHER ROUNDUP
NATIONAL WEATHER SERVICE PORTLAND OR
600 PM PST THU FEB 23 2017

NOTE: "FAIR" INDICATES FEW OR NO CLOUDS BELOW 12,000 FEET WITH
NO SIGNIFICANT WEATHER AND/OR OBSTRUCTIONS TO VISIBILITY.

ORZ001>013-240300-
NORTHWEST OREGON


CITY           SKY/WX    TMP DP  RH WIND       PRES   REMARKS
ASTORIA        PTCLDY    41  31  67 W6        30.22S
PORTLAND       PTCLDY    39  32  76 NW3       30.24R
VANCOUVER WA   PTCLDY    41  34  76 NW5       30.23S
SCAPPOOSE      LGT RAIN  37  34  89 N13       30.25R WCI  29
HILLSBORO      PTCLDY    38  35  89 W3        30.23S
AURORA         MOCLDY    38  31  76 W3        30.25R
MCMINNVILLE    MOCLDY    41  33  73 NE3       30.25R
SALEM          MOCLDY    39  30  70 SW5       30.23R
CORVALLIS        N/A     39  36  87 S7        30.25R WCI  34
EUGENE         LGT RAIN  40  37  89 NE9       30.25S WCI  34
$$

ORZ021-028-240300-
SOUTHWEST OREGON


CITY           SKY/WX    TMP DP  RH WIND       PRES   REMARKS
NORTH BEND     CLEAR     43  37  81 CALM      30.29S
BROOKINGS      CLEAR     43  33  68 N5        30.26
ROSEBURG       CLOUDY    40  34  79 N3        30.26R
SEXTON SUMMIT  PTCLDY    24  22  91 CALM      30.11S
MEDFORD        PTCLDY    42  26  53 CALM      30.20R
$$

ORZ014>016-041-240300-
COLUMBIA GORGE


CITY           SKY/WX    TMP DP  RH WIND       PRES   REMARKS
TROUTDALE      CLOUDY    39  35  86 S8        30.24R WCI  33
THE DALLES     CLEAR     41  27  57 NW10      30.18R
$$

ORZ029>031-041-044-049-050-061>064-502-503-505>511-240300-
EASTERN OREGON


CITY           SKY/WX    TMP DP  RH WIND       PRES   REMARKS
REDMOND        CLOUDY    30  22  72 NE3       30.09R
BEND           PTCLDY    30  14  51 NW8G14    30.08S WCI  23
PRINEVILLE     CLOUDY    32  18  55 NW8       30.08S WCI  25
KLAMATH FALLS  PTCLDY    29  19  66 N12       30.07R WCI  19
LAKEVIEW       CLOUDY    23  18  80 S3        30.05S
HERMISTON      CLEAR     41  23  48 CALM      30.14S
PENDLETON      CLEAR     35  24  64 NW3       30.11F
JOHN DAY       CLOUDY    29  23  78 CALM      30.05S
MEACHAM        MOCLDY    24  19  81 CALM      30.03S
LA GRANDE      PTCLDY    30  19  64 NW9       30.06S WCI  22
BAKER CITY     MOCLDY    28  19  69 NW15      30.02S WCI  16
BURNS          CLEAR     21  12  68 NW6       30.01S WCI  13
ROME             N/A     23  15  71 SW6       29.99R WCI  16
ONTARIO        CLOUDY    34  22  61 NW18      30.02S WCI  23
$$




USA.gov is the U.S. government's official web portal to all federal, state and local government web resources and services.